Home > Weather > Stellenbosch > Past weeks

Flag for South Africa Weather for the Past 2 Weeks in Stellenbosch, South Africa

Now
57 °F

Passing clouds.


Feels Like: 57 °F
Forecast: 47 / 70 °F
Wind: 5 mph from Southeast

Location: Cape Town International Airport

Current Time: May 1, 2016 at 8:37:22 PM

Latest Report: May 1, 2016 at 8:00 PM


Visibility: N/A

Pressure: 30.18 "Hg

Humidity: 82%

Dew Point: 52 °F

Location of StellenboschLocation

Historic Weather in Stellenbosch — Graph

°F

Stellenbosch Temperature Yesterday

Maximum temperature yesterday: 64 °F (at 2:00 PM)
Minimum temperature yesterday: 48 °F (at 3:00 AM)
Average temperature yesterday: 57 °F

High & Low Weather Summary for the Past Weeks

 TemperatureHumidityPressure
High82 °F (Apr 18, 2:00 PM)94% (Apr 18, 6:00 AM)30.33 "Hg (Apr 18, 6:00 AM)
Low43 °F (May 1, 8:00 AM)40% (Apr 18, 2:00 PM)29.53 "Hg (Apr 22, 4:00 PM)
Average61 °F77%30.01 "Hg
* Reported Apr 16 7:00 PM — May 1 7:00 PM, Stellenbosch, Weather by CustomWeather, © 2016

Note: Actual official high and low records may vary slightly from our data, if they occured in-between our weather recording intervals... More about our weather records

Advertising

Stellenbosch Weather History for the Previous 24 Hours

Scroll right to see more
 ConditionsComfort  
Time TempWeatherWind HumidityBarometerVisibility
7:00 PM
Sun, May 1
57 °FPassing clouds.6 mph77%30.15 "HgN/A
6:00 PM59 °FClear.7 mph72%30.15 "Hg10 mi
5:00 PM63 °FSunny.9 mph64%30.15 "Hg10 mi
4:00 PM64 °FSunny.12 mph60%30.15 "Hg10 mi
3:00 PM66 °FPassing clouds.7 mph56%30.15 "HgN/A
2:00 PM64 °FPassing clouds.7 mph56%30.15 "HgN/A
1:00 PM64 °FPassing clouds.7 mph52%30.18 "HgN/A
12:00 PM63 °FPassing clouds.8 mph56%30.21 "HgN/A
11:00 AM61 °FPassing clouds.10 mph63%30.21 "HgN/A
10:00 AM57 °FSunny.7 mph72%30.21 "Hg10 mi
9:00 AM54 °FSunny.No wind88%30.21 "Hg10 mi
8:00 AM43 °FSunny.2 mph93%30.18 "Hg10 mi
7:00 AM45 °FSunny.1 mph93%30.18 "Hg10 mi
6:00 AM46 °FClear.2 mph87%30.18 "Hg10 mi
5:00 AM48 °FFog.No wind94%30.18 "HgN/A
4:00 AM50 °FPassing clouds.3 mph88%30.18 "HgN/A
3:00 AM54 °FClear.8 mph77%30.18 "Hg10 mi
2:00 AM50 °FPassing clouds.3 mph82%30.18 "HgN/A
1:00 AM54 °FClear.7 mph77%30.21 "Hg10 mi
12:00 AM54 °FClear.7 mph82%30.24 "Hg10 mi
11:00 PM
Sat, Apr 30
54 °FClear.8 mph82%30.21 "Hg10 mi
10:00 PM55 °FClear.8 mph77%30.21 "Hg10 mi
9:00 PM55 °FClear.7 mph72%30.24 "Hg10 mi
8:00 PM57 °FClear.9 mph72%30.24 "Hg10 mi
Weather by CustomWeather, © 2016

See weather overviewHow to use our weather pages